Date String (YYYY-MM-DD hh:mm:ss) UTC,Instrument flags,absolute air pressure of the measurement (hPa),sample flow rate (lpm),inlet stack bypass flow (lpm),air temperature of the measurement (°C),ambient temperature measured by the external sensor (°C),aerosol sample conditioner tube jacket temperature (°C),OPC LED temperature (°C),internal box temperature (°C),relative humidity of the measurement (%),span deviation,mass concentration of particles derived from Lorenz-Mie calculation of OPC scattering (μg/m³),mass concentration of particles derived from Lorenz-Mie calculation of OPC scattering (μg/m³),mass concentration of particles derived from Lorenz-Mie calculation of OPC scattering (μg/m³)
DateTimeUTC,F1_M11,P_M11,Q1_M11,Q2_M11,T1_M11,T2_M11,T3_M11,T4_M11,T5_M11,U1_M11,ZSPAN_M11,X0_M11,X2_M11,X1_M11
2023-10-24 02:00:00,SystemResetWarning,0822.1,5.00,000.00,028.2,025.9,000.0,036.7,029.9,14.1,0000.0,0028.68,0006.78,0004.53
2023-10-24 02:01:00,SystemResetWarning,0822.1,5.00,000.00,028.2,026.2,000.0,036.7,029.9,14.0,0000.0,0028.26,0006.77,0004.53
2023-10-24 02:02:00,SystemResetWarning,0822.1,5.00,000.00,028.2,026.4,000.0,036.7,030.0,14.1,0000.0,0028.72,0006.79,0004.54
2023-10-24 02:03:00,SystemResetWarning,0822.1,5.01,000.00,028.2,026.6,000.0,036.7,030.0,14.2,0000.0,0030.09,0006.82,0004.54
2023-10-24 02:04:00,SystemResetWarning,0822.2,5.01,000.00,028.2,026.8,000.0,036.7,030.1,14.1,0000.0,0028.89,0006.83,0004.54
2023-10-24 02:05:00,SystemResetWarning,0822.2,5.00,000.00,028.3,026.9,000.0,036.8,030.1,14.1,0000.0,0029.50,0006.90,0004.54
2023-10-24 02:06:00,SystemResetWarning,0822.2,5.00,000.00,028.3,027.0,000.0,036.8,030.1,14.1,0000.0,0027.64,0006.91,0004.54
2023-10-24 02:07:00,SystemResetWarning,0822.2,5.00,000.00,028.3,027.1,000.0,036.8,030.2,14.0,0000.0,0026.34,0006.94,0004.54
2023-10-24 02:08:00,SystemResetWarning,0822.2,5.00,000.00,028.4,027.2,000.0,036.8,030.2,13.9,0000.0,0026.92,0006.96,0004.55
2023-10-24 02:09:00,SystemResetWarning,0822.2,5.00,000.00,028.4,027.3,000.0,036.8,030.2,13.8,0000.0,0027.32,0006.87,0004.54
2023-10-24 02:10:00,SystemResetWarning,0822.2,5.00,000.00,028.5,027.4,000.0,036.8,030.3,13.8,0000.0,0026.18,0006.80,0004.54
2023-10-24 02:11:00,SystemResetWarning,0822.2,4.99,000.00,028.5,027.4,000.0,036.9,030.3,13.8,0000.0,0024.80,0006.77,0004.53
2023-10-24 02:12:00,SystemResetWarning,0822.3,4.99,000.00,028.5,027.4,000.0,036.9,030.3,13.8,0000.0,0025.23,0006.71,0004.53
2023-10-24 02:13:00,SystemResetWarning,0822.2,5.00,000.00,028.5,025.8,000.0,036.8,030.2,13.7,0000.0,0024.16,0006.64,0004.53
2023-10-24 02:14:00,SystemResetWarning,0822.2,5.00,000.00,028.4,024.5,000.0,036.8,030.1,13.6,0000.0,0023.70,0006.69,0004.54
2023-10-24 02:15:00,SystemResetWarning,0822.2,5.01,000.00,028.4,024.4,000.0,036.8,029.9,13.7,0000.0,0024.22,0006.71,0004.55
2023-10-24 02:16:00,SystemResetWarning,0822.2,5.00,000.00,028.2,024.7,000.0,036.8,029.7,13.7,0000.0,0023.27,0006.65,0004.57
2023-10-24 02:17:00,SystemResetWarning,0822.2,5.00,000.00,028.2,025.1,000.0,036.8,029.8,13.7,0000.0,0022.76,0006.64,0004.60
2023-10-24 02:18:00,SystemResetWarning,0822.2,5.00,000.00,028.2,025.5,000.0,036.8,029.8,13.7,0000.0,0023.43,0006.66,0004.61
2023-10-24 02:19:00,SystemResetWarning,0822.3,5.00,000.00,028.2,025.8,000.0,036.8,029.9,13.6,0000.0,0022.72,0006.64,0004.61
2023-10-24 02:20:00,SystemResetWarning,0822.2,4.99,000.00,028.2,026.1,000.0,036.8,029.9,13.6,0000.0,0022.45,0006.75,0004.61
2023-10-24 02:21:00,SystemResetWarning,0822.2,4.99,000.00,028.2,026.3,000.0,036.8,029.9,13.6,0000.0,0023.18,0006.78,0004.61
2023-10-24 02:22:00,SystemResetWarning,0822.2,5.00,000.00,028.2,026.5,000.0,036.8,030.0,13.6,0000.0,0023.70,0006.76,0004.62
2023-10-24 02:23:00,SystemResetWarning,0822.2,5.00,000.00,028.3,026.7,000.0,036.8,030.0,13.6,0000.0,0023.91,0006.77,0004.63
2023-10-24 02:24:00,SystemResetWarning,0822.2,5.01,000.00,028.3,026.9,000.0,036.8,030.1,13.6,0000.0,0023.54,0006.75,0004.63
2023-10-24 02:25:00,SystemResetWarning,0822.2,5.01,000.00,028.3,027.0,000.0,036.8,030.1,13.6,0000.0,0024.89,0006.76,0004.63
2023-10-24 02:26:00,SystemResetWarning,0822.2,4.99,000.00,028.3,027.1,000.0,036.8,030.1,13.6,0000.0,0024.91,0006.77,0004.64
2023-10-24 02:27:00,SystemResetWarning,0822.2,4.99,000.00,028.4,027.2,000.0,036.8,030.2,13.5,0000.0,0025.31,0006.79,0004.64
2023-10-24 02:28:00,SystemResetWarning,0822.3,5.00,000.00,028.4,027.2,000.0,036.8,030.2,13.5,0000.0,0025.34,0006.76,0004.62
2023-10-24 02:29:00,SystemResetWarning,0822.2,5.00,000.00,028.5,027.3,000.0,036.8,030.3,13.4,0000.0,0025.74,0006.75,0004.62
2023-10-24 02:30:00,SystemResetWarning,0822.3,5.01,000.00,028.5,027.4,000.0,036.9,030.3,13.4,0000.0,0026.22,0006.80,0004.63
2023-10-24 02:31:00,SystemResetWarning,0822.3,5.01,000.00,028.5,027.4,000.0,036.9,030.3,13.3,0000.0,0026.83,0006.79,0004.66
2023-10-24 02:32:00,SystemResetWarning,0822.3,4.99,000.00,028.6,027.5,000.0,036.9,030.4,13.2,0000.0,0026.81,0006.86,0004.71
2023-10-24 02:33:00,SystemResetWarning,0822.3,4.99,000.00,028.6,026.4,000.0,036.9,030.3,13.2,0000.0,0026.79,0006.88,0004.76
2023-10-24 02:34:00,SystemResetWarning,0822.3,5.00,000.00,028.5,024.7,000.0,036.8,030.1,13.2,0000.0,0025.47,0006.90,0004.79
2023-10-24 02:35:00,SystemResetWarning,0822.3,5.00,000.00,028.4,024.4,000.0,036.8,029.9,13.2,0000.0,0025.95,0006.95,0004.83
2023-10-24 02:36:00,SystemResetWarning,0822.3,5.01,000.00,028.3,024.6,000.0,036.8,029.8,13.3,0000.0,0024.33,0006.93,0004.87
2023-10-24 02:37:00,SystemResetWarning,0822.3,5.00,000.00,028.2,025.0,000.0,036.8,029.8,13.3,0000.0,0024.85,0006.94,0004.89
2023-10-24 02:38:00,SystemResetWarning,0822.2,5.00,000.00,028.2,025.4,000.0,036.8,029.8,13.3,0000.0,0025.69,0006.96,0004.90
2023-10-24 02:39:00,SystemResetWarning,0822.3,5.01,000.00,028.2,025.7,000.0,036.8,029.9,13.3,0000.7,0026.73,0007.02,0004.91
2023-10-24 02:40:00,SystemResetWarning,0822.3,4.99,000.00,028.2,026.0,000.0,036.8,029.9,13.3,0003.5,0025.52,0006.99,0004.91
2023-10-24 02:41:00,SystemResetWarning,0822.3,5.00,000.00,028.2,026.3,000.0,036.8,030.0,13.3,0003.5,0025.71,0006.91,0004.89
2023-10-24 02:42:00,SystemResetWarning,0822.3,5.00,000.00,028.2,026.5,000.0,036.8,030.0,13.3,0002.7,0025.13,0006.91,0004.88
2023-10-24 02:43:00,SystemResetWarning,0822.3,5.01,000.00,028.3,026.7,000.0,036.8,030.0,13.3,0002.6,0025.03,0006.89,0004.86
2023-10-24 02:44:00,SystemResetWarning,0822.3,5.01,000.00,028.3,026.8,000.0,036.8,030.1,13.3,0001.4,0025.88,0006.91,0004.82
2023-10-24 02:45:00,SystemResetWarning,0822.4,5.00,000.00,028.3,026.9,000.0,036.8,030.1,13.3,0000.0,0026.83,0006.90,0004.79
2023-10-24 02:46:00,SystemResetWarning,0822.4,4.99,000.00,028.3,027.1,000.0,036.8,030.1,13.2,0000.0,0026.35,0006.87,0004.77
2023-10-24 02:47:00,SystemResetWarning,0822.4,4.99,000.00,028.4,027.1,000.0,036.8,030.2,13.2,0000.0,0025.28,0006.82,0004.73
2023-10-24 02:48:00,SystemResetWarning,0822.4,4.99,000.00,028.4,027.2,000.0,036.8,030.2,13.2,0000.0,0024.76,0006.79,0004.71
2023-10-24 02:49:00,SystemResetWarning,0822.4,5.01,000.00,028.4,027.3,000.0,036.8,030.2,13.2,0000.0,0023.44,0006.78,0004.69
2023-10-24 02:50:00,SystemResetWarning,0822.4,5.01,000.00,028.5,027.3,000.0,036.9,030.3,13.1,0000.0,0022.15,0006.76,0004.68
2023-10-24 02:51:00,SystemResetWarning,0822.4,5.00,000.00,028.5,027.4,000.0,036.9,030.3,13.1,0000.0,0022.76,0006.85,0004.68
2023-10-24 02:52:00,SystemResetWarning,0822.5,5.00,000.00,028.5,027.4,000.0,036.9,030.3,13.1,0000.0,0022.56,0006.90,0004.70
2023-10-24 02:53:00,SystemResetWarning,0822.7,5.01,000.00,028.6,027.5,000.0,036.9,030.3,13.1,0000.0,0023.56,0006.85,0004.69
2023-10-24 02:54:00,SystemResetWarning,0822.8,4.98,000.00,028.6,027.5,000.0,036.9,030.4,13.1,0000.0,0023.99,0006.87,0004.68
2023-10-24 02:55:00,SystemResetWarning,0822.7,4.99,000.00,028.6,026.2,000.0,036.9,030.3,13.0,0000.0,0023.59,0006.84,0004.67
2023-10-24 02:56:00,SystemResetWarning,0822.5,5.01,000.00,028.5,024.7,000.0,036.9,030.1,13.0,0000.0,0024.15,0006.82,0004.67
2023-10-24 02:57:00,SystemResetWarning,0823.0,5.01,000.00,028.4,024.4,000.0,036.8,029.9,13.1,0000.0,0024.84,0006.88,0004.68
2023-10-24 02:58:00,SystemResetWarning,0823.1,4.99,000.00,028.3,024.7,000.0,036.8,029.8,13.1,0000.0,0026.37,0006.94,0004.69
2023-10-24 02:59:00,SystemResetWarning,0823.1,5.00,000.00,028.3,025.0,000.0,036.8,029.8,13.3,0000.0,0025.66,0007.03,0004.70
